Location: Berkeley
(37.8716°N, 122.2727°W)
Time: 09:28:26
(UTC-07:00)

Tiangong - Visible Passes

Search period start: 19 April 2024 00:00
Search period end: 29 April 2024 00:00
Orbit: 371 x 379 km, 41.5° (Epoch: 19 April)

Date Brightness Start Highest point End Pass type
(mag) Time Alt. Az. Time Alt. Az. Time Alt. Az.
19 Apr -1.6 21:05:24 10° W 21:08:25 56° NNW 21:10:09 23° ENE visible
20 Apr -1.1 21:39:30 10° WNW 21:42:26 40° N 21:42:33 39° N visible
21 Apr -1.3 20:36:32 10° W 20:39:31 45° N 20:42:30 10° ENE visible
21 Apr 0.3 22:13:25 10° WNW 22:14:48 23° NW 22:14:48 23° NW visible
22 Apr -1.1 21:10:30 10° WNW 21:13:26 40° N 21:14:55 23° ENE visible
23 Apr -1.5 21:44:13 10° WNW 21:46:56 53° NNW 21:46:56 53° NNW visible
24 Apr -1.3 20:41:13 10° WNW 20:44:12 43° N 20:46:52 12° E visible
24 Apr 0.5 22:17:50 10° WNW 22:18:52 19° W 22:18:52 19° W visible
25 Apr -2.2 21:14:46 10° WNW 21:17:51 78° NNE 21:18:45 42° E visible
26 Apr -0.9 21:48:23 10° W 21:50:35 33° WSW 21:50:35 33° WSW visible
27 Apr -2.2 20:45:08 10° WNW 20:48:12 72° SSW 20:50:25 17° ESE visible
28 Apr -0.6 21:18:51 10° W 21:21:24 24° SSW 21:22:13 21° S visible
